Preview of NWS' New Version of Forecast
This preview is not operational and should not be used for support decisions.

Regional Weather Roundup (RWR)

Issued by National Weather Service (NWS)

                            
000
ASUS43 KBIS 160802
RWRND 

NORTH DAKOTA REGIONAL WEATHER ROUNDUP
NATIONAL WEATHER SERVICE BISMARCK ND
300 AM CDT MON SEP 16 2019

NOTE: "FAIR" INDICATES FEW OR NO CLOUDS BELOW 12,000 FEET WITH NO
SIGNIFICANT WEATHER AND/OR OBSTRUCTIONS TO VISIBILITY.


NDZ001>003-009>011-017-160900-
NORTHWEST NORTH DAKOTA
  
CITY           SKY/WX    TMP DP  RH WIND       PRES   REMARKS
WILLISTON      CLEAR     57  53  86 NE3       29.74S                  
MINOT          CLEAR     57  55  93 CALM      29.74F                  
$$
 
NDZ018>021-031>035-040>046-160900-
SOUTHWEST NORTH DAKOTA
  
CITY           SKY/WX    TMP DP  RH WIND       PRES   REMARKS
BISMARCK       PTCLDY    63  60  90 E6        29.77S                  
DICKINSON      CLEAR     58  52  80 SE7       29.76S                  
GARRISON         N/A     58  56  93 E3        29.76S                  
HETTINGER ARPT PTCLDY    52  51  97 CALM      29.80R                  
$$
 
NDZ004>008-012>016-024-026-027-054-160900-
NORTHEAST NORTH DAKOTA
  
CITY           SKY/WX    TMP DP  RH WIND       PRES   REMARKS
GRAND FORKS    CLEAR     65  62  90 SE13      29.83F                  
GRND FRKS AFB  CLEAR     65  65 100 S10       29.83F                  
DEVILS LAKE    LGT RAIN  63  62  97 SE6       29.81F                  
$$
 
NDZ022-023-025-028>030-036>039-047>053-160900-
SOUTHEAST NORTH DAKOTA
  
CITY           SKY/WX    TMP DP  RH WIND       PRES   REMARKS
FARGO          CLEAR     68  64  87 SE13      29.86F                  
JAMESTOWN      CLEAR     67  65  93 S13       29.81F                  
$$